Location: Asheville, NC
(35.6000°N, 82.5500°W)
Time: 18:28:38
(UTC-04:00)

Envisat - Pass Details

Date: 18 February 2018
Orbit: 764 x 766 km, 98.2° (Epoch: 21 May)

Event Time Altitude Azimuth Distance (km) Brightness Sun altitude
Exits shadow 19:03:31 - 131° (SE) 3,102 5.7 -10.5°
Reaches altitude 10° 19:05:55 10° 118° (ESE) 2,293 5.0 -11.0°
Maximum altitude 19:09:48 23° 68° (ENE) 1,586 4.1 -11.8°
Drops below altitude 10° 19:13:43 10° 17° (NNE) 2,304 5.3 -12.6°
Sets 19:16:26 0° 3° (N) 3,234 6.2 -13.1°
